Location: Unspecified
(42.7345°N, 0.0000°E)
Time: 10:28:43
(UTC+00:00)

SL-16 DEB - Visible Passes

Search period start: 04 April 2026 00:00
Search period end: 14 April 2026 00:00
Orbit: 812 x 962 km, 70.9° (Epoch: 28 March)

Date Brightness Start Highest point End Pass type
(mag) Time Alt. Az. Time Alt. Az. Time Alt. Az.
4 Apr ? 00:39:59 21° N 00:39:59 21° N 00:42:02 10° N visible
4 Apr ? 22:55:31 10° NE 22:55:31 10° NE 22:55:35 10° NE visible
5 Apr ? 00:38:15 20° N 00:38:15 20° N 00:40:28 10° N visible
5 Apr ? 22:53:44 13° NE 22:53:44 13° NE 22:54:16 10° NE visible
6 Apr ? 00:36:28 20° NNW 00:36:28 20° NNW 00:38:51 10° N visible
6 Apr ? 22:51:55 15° NNE 22:51:55 15° NNE 22:52:53 10° NNE visible
7 Apr ? 00:34:38 19° NNW 00:34:38 19° NNW 00:37:12 10° N visible
7 Apr ? 22:50:03 18° NNE 22:50:03 18° NNE 22:51:30 10° NNE visible
8 Apr ? 00:32:45 18° NNW 00:32:45 18° NNW 00:35:31 10° N visible
8 Apr ? 22:48:07 22° NNE 22:48:07 22° NNE 22:50:04 10° NNE visible
9 Apr ? 00:30:50 16° NW 00:30:50 16° NW 00:33:45 10° N visible
9 Apr ? 22:46:07 27° NNE 22:46:07 27° NNE 22:48:37 10° NNE visible
10 Apr ? 00:28:49 14° NW 00:29:03 14° NW 00:31:54 10° NNW visible
10 Apr ? 22:44:02 32° N 22:44:02 32° N 22:47:08 10° NNE visible
11 Apr ? 00:26:43 11° NW 00:27:50 12° NW 00:29:50 10° NNW visible
11 Apr ? 20:59:08 13° NE 20:59:08 13° NE 20:59:47 10° NE visible
11 Apr ? 22:41:49 37° N 22:41:49 37° N 22:45:38 10° NNE visible
12 Apr ? 20:56:48 18° ENE 20:56:48 18° ENE 20:58:38 10° NE visible
12 Apr ? 22:39:29 40° NW 22:39:29 40° NW 22:44:06 10° NNE visible
13 Apr ? 20:54:15 27° ENE 20:54:15 27° ENE 20:57:24 10° NE visible
13 Apr ? 22:36:55 35° WNW 22:37:18 35° NW 22:42:32 10° N visible
